CW3202 Weather Reports


Display with metric or nautical units.
time (UTC)temp
F
wind
direction
speed
MPH
gust
MPH
rain 1hr
in
rain 24hr
in
rain mn
in
humidity
%
barometer
mb
20260506062404 54 360 2.0 3.0 0.00 0.00 0.00 94 1017.0
20260506061904 54 360 0.0 0.0 0.00 0.00 0.00 94 1016.9
20260506061404 54 360 0.0 0.0 0.00 0.00 0.00 94 1017.0
20260506060904 54 360 0.0 0.0 0.00 0.00 0.00 94 1016.9
20260506060404 54 360 0.0 0.0 0.00 0.00 0.00 94 1016.9
20260506051104 53 360 1.0 1.0 0.00 0.00 0.00 93 1016.8
20260506050604 53 360 1.0 1.0 0.00 0.00 0.00 93 1016.9
20260506050104 53 360 1.0 2.0 0.00 0.00 0.00 93 1016.9
20260506044704 53 360 2.0 2.0 0.00 0.00 0.00 92 1016.8
20260506044204 53 360 2.0 2.0 0.00 0.00 0.00 92 1016.7
20260506043704 53 360 2.0 3.0 0.00 0.00 0.00 92 1016.7
20260506043203 53 360 0.0 3.0 0.00 0.00 0.00 91 1016.6
20260506042704 53 360 1.0 3.0 0.00 0.00 0.00 92 1016.5
20260506042204 53 360 2.0 3.0 0.00 0.00 0.00 91 1016.4
20260506041404 54 360 2.0 3.0 0.00 0.00 0.00 92 1016.4
20260506040904 53 360 1.0 2.0 0.00 0.00 0.00 92 1016.3
20260506040404 53 360 1.0 2.0 0.00 0.00 0.00 91 1016.2
20260506035904 53 360 2.0 2.0 0.00 0.00 0.00 90 1015.9
20260506035306 54 360 1.0 2.0 0.00 0.00 0.00 88 1016.0
20260506034804 55 360 0.0 2.0 0.00 0.00 0.00 87 1015.9
20260506034304 56 225 1.0 2.0 0.00 0.00 0.00 86 1015.8
20260506033804 56 360 0.0 1.0 0.00 0.00 0.00 86 1015.8
20260506033304 57 360 0.0 1.0 0.00 0.00 0.00 85 1015.6
20260506032709 57 360 0.0 1.0 0.00 0.00 0.00 85 1015.6
20260506032204 58 226 0.0 1.0 0.00 0.00 0.00 85 1015.5
20260506031704 58 226 1.0 1.0 0.00 0.00 0.00 84 1015.5
20260506031204 59 226 0.0 1.0 0.00 0.00 0.00 83 1015.4
20260506030704 59 360 1.0 2.0 0.00 0.00 0.00 82 1015.2
20260506030204 60 360 1.0 2.0 0.00 0.00 0.00 82 1015.2
20260506025704 60 360 1.0 2.0 0.00 0.00 0.00 81 1015.2
20260506025005 61 360 2.0 2.0 0.00 0.00 0.00 80 1015.1
20260506024504 61 360 2.0 2.0 0.00 0.00 0.00 79 1015.0
20260506024005 61 360 1.0 4.0 0.00 0.00 0.00 80 1015.0
20260506023504 61 236 2.0 4.0 0.00 0.00 0.00 78 1014.9
20260506022904 62 219 3.0 4.0 0.00 0.00 0.00 78 1014.9
20260506022404 62 227 4.0 5.0 0.00 0.00 0.00 78 1014.9
20260506021904 62 214 3.0 5.0 0.00 0.00 0.00 77 1014.9
20260506021104 63 185 5.0 5.0 0.00 0.00 0.00 77 1014.9
20260506020604 64 190 2.0 3.0 0.00 0.00 0.00 77 1014.9
20260506020104 64 217 3.0 4.0 0.00 0.00 0.00 76 1014.9
20260506015204 64 263 3.0 5.0 0.00 0.00 0.00 75 1014.9
20260506014504 64 209 1.0 7.0 0.00 0.00 0.00 75 1014.8
20260506014004 64 223 4.0 7.0 0.00 0.00 0.00 75 1014.7
20260506013504 64 211 4.0 5.0 0.00 0.00 0.00 74 1014.7
20260506013004 65 212 4.0 6.0 0.00 0.00 0.00 76 1014.8
20260506012504 65 202 2.0 6.0 0.00 0.00 0.00 74 1014.7
20260506012005 65 190 1.0 5.0 0.00 0.00 0.00 74 1014.8
20260506011504 65 196 3.0 5.0 0.00 0.00 0.00 75 1014.7
20260506011004 65 195 4.0 6.0 0.00 0.00 0.00 76 1014.7
20260506010504 65 221 3.0 6.0 0.00 0.00 0.00 73 1014.7
20260506010004 65 170 0.0 6.0 0.00 0.00 0.00 74 1014.7
20260506005504 65 212 5.0 5.0 0.00 0.00 0.00 74 1014.7
20260506005004 65 220 2.0 5.0 0.00 0.00 0.00 74 1014.7
20260506004504 65 169 5.0 6.0 0.00 0.00 0.00 75 1014.7
20260506004004 65 221 3.0 6.0 0.00 0.00 0.00 75 1014.9
20260506003504 65 230 1.0 4.0 0.00 0.00 0.00 74 1014.9
20260506003004 65 253 2.0 6.0 0.00 0.00 0.00 74 1014.8
20260506002504 65 218 4.0 6.0 0.00 0.00 0.00 75 1014.9
20260506002004 64 279 3.0 4.0 0.00 0.00 0.00 77 1014.8
20260506001504 64 230 2.0 4.0 0.00 0.00 0.00 74 1015.0
20260506001004 64 214 4.0 6.0 0.00 0.00 0.00 76 1015.0
20260506000504 64 271 2.0 8.0 0.00 0.00 0.00 78 1015.1
20260506000004 65 211 6.0 8.0 0.00 0.00 0.00 75 1015.1
20260505235504 65 169 6.0 6.0 0.00 0.00 0.00 75 1015.1
20260505235004 66 264 6.0 6.0 0.00 0.00 0.00 75 1015.1
20260505234505 66 196 1.0 6.0 0.00 0.00 0.00 74 1015.2
20260505234004 66 266 1.0 6.0 0.00 0.00 0.00 72 1015.1
20260505233504 66 183 2.0 3.0 0.00 0.00 0.00 75 1015.1
20260505233004 66 172 1.0 3.0 0.00 0.00 0.00 76 1015.0
20260505232504 65 172 2.0 7.0 0.00 0.00 0.00 75 1015.3
20260505232004 64 150 3.0 7.0 0.00 0.00 0.00 78 1015.4
20260505231504 64 182 2.0 6.0 0.00 0.00 0.00 76 1015.5
20260505231004 64 167 3.0 6.0 0.00 0.00 0.00 78 1015.5
20260505230504 63 228 0.0 6.0 0.00 0.00 0.00 77 1015.5
20260505230004 63 178 2.0 6.0 0.00 0.00 0.00 79 1015.5
20260505225504 63 234 1.0 8.0 0.00 0.00 0.00 78 1015.6
20260505225004 63 223 5.0 8.0 0.00 0.00 0.00 79 1015.6
20260505224504 64 205 8.0 8.0 0.00 0.00 0.00 79 1015.7
20260505223804 64 200 3.0 8.0 0.00 0.00 0.00 78 1015.7
20260505223304 63 118 2.0 8.0 0.00 0.00 0.00 77 1015.7
20260505222804 63 161 4.0 4.0 0.00 0.00 0.00 79 1015.7
20260505222306 63 190 2.0 6.0 0.00 0.00 0.00 78 1015.8
20260505221804 62 187 3.0 6.0 0.00 0.00 0.00 78 1015.8
20260505221304 63 162 2.0 6.0 0.00 0.00 0.00 79 1015.8
20260505220804 62 147 4.0 6.0 0.00 0.00 0.00 77 1015.9
20260505220305 62 198 5.0 9.0 0.00 0.00 0.00 78 1015.9
20260505215804 62 156 3.0 9.0 0.00 0.00 0.00 77 1015.9
20260505215204 62 171 6.0 6.0 0.00 0.00 0.00 79 1015.9
20260505214704 62 192 5.0 7.0 0.00 0.00 0.00 79 1015.9
20260505214004 63 198 7.0 7.0 0.00 0.00 0.00 76 1015.9
20260505213504 63 203 2.0 7.0 0.00 0.00 0.00 75 1016.0
20260505213004 63 186 1.0 7.0 0.00 0.00 0.00 76 1016.0
20260505212305 63 193 2.0 6.0 0.00 0.00 0.00 77 1016.0
20260505211804 64 196 1.0 4.0 0.00 0.00 0.00 74 1016.1
20260505211304 64 186 3.0 5.0 0.00 0.00 0.00 73 1016.1
20260505210705 64 164 2.0 5.0 0.00 0.00 0.00 75 1016.1
20260505210204 63 180 1.0 6.0 0.00 0.00 0.00 77 1016.2
20260505205704 62 144 4.0 6.0 0.00 0.00 0.00 78 1016.2
20260505205204 62 161 4.0 4.0 0.00 0.00 0.00 75 1016.2
20260505204504 62 180 3.0 6.0 0.00 0.00 0.00 76 1016.2
20260505204004 63 207 4.0 6.0 0.00 0.00 0.00 76 1016.1
20260505203504 64 182 4.0 4.0 0.00 0.00 0.00 75 1016.2
20260505203004 64 146 0.0 5.0 0.00 0.00 0.00 75 1016.1
20260505202504 63 138 0.0 5.0 0.00 0.00 0.00 76 1016.2
20260505202004 62 171 0.0 4.0 0.00 0.00 0.00 78 1016.2
20260505201504 62 169 4.0 4.0 0.00 0.00 0.00 77 1016.2
20260505201004 61 163 2.0 4.0 0.00 0.00 0.00 78 1016.3
20260505200304 60 215 0.0 3.0 0.00 0.00 0.00 78 1016.3
20260505195804 60 219 1.0 4.0 0.00 0.00 0.00 80 1016.3
20260505195305 59 220 3.0 5.0 0.00 0.00 0.00 80 1016.2
20260505194804 59 199 4.0 5.0 0.00 0.00 0.00 81 1016.2
20260505194304 59 224 2.0 5.0 0.00 0.00 0.00 79 1016.4
20260505193804 59 215 3.0 3.0 0.00 0.00 0.00 81 1016.4
20260505193304 59 360 0.0 5.0 0.00 0.00 0.00 80 1016.3
20260505192604 59 217 2.0 5.0 0.00 0.00 0.00 80 1016.4
20260505192104 59 360 4.0 4.0 0.00 0.00 0.00 79 1016.4
20260505191604 59 360 3.0 4.0 0.00 0.00 0.00 81 1016.3
20260505191004 59 360 4.0 4.0 0.00 0.00 0.00 82 1016.3
20260505190504 59 360 2.0 2.0 0.00 0.00 0.00 80 1016.3
20260505190004 58 360 1.0 5.0 0.00 0.00 0.00 81 1016.3
20260505185504 58 200 1.0 5.0 0.00 0.00 0.00 82 1016.3
20260505185004 58 194 5.0 5.0 0.00 0.00 0.00 83 1016.2
20260505184504 58 225 0.0 2.0 0.00 0.00 0.00 81 1016.2
20260505184004 58 360 0.0 3.0 0.00 0.00 0.00 81 1016.3
20260505183504 58 227 1.0 3.0 0.00 0.00 0.00 82 1016.3
20260505183004 58 185 1.0 3.0 0.00 0.00 0.00 84 1016.2
20260505182504 58 360 0.0 2.0 0.00 0.00 0.00 82 1016.3
20260505182004 58 360 0.0 4.0 0.00 0.00 0.00 82 1016.3
20260505181504 58 360 2.0 4.0 0.00 0.00 0.00 83 1016.2
20260505181004 58 360 0.0 3.0 0.00 0.00 0.00 82 1016.2
20260505180504 58 360 3.0 3.0 0.00 0.00 0.00 83 1016.2
20260505180004 58 360 3.0 3.0 0.00 0.00 0.00 84 1016.1
20260505175504 57 360 1.0 5.0 0.00 0.00 0.00 85 1016.1
20260505175004 57 360 3.0 5.0 0.00 0.00 0.00 85 1016.1
20260505174504 57 360 4.0 4.0 0.00 0.00 0.00 86 1016.1
20260505173604 57 360 3.0 3.0 0.00 0.00 0.00 86 1016.1
20260505173104 56 360 3.0 3.0 0.00 0.00 0.00 87 1016.1
20260505172604 56 200 2.0 3.0 0.00 0.00 0.00 86 1016.1
20260505172104 56 196 1.0 4.0 0.00 0.00 0.00 87 1016.0
20260505171604 56 194 2.0 4.0 0.00 0.00 0.00 86 1016.0
20260505171104 56 203 0.0 4.0 0.00 0.00 0.00 86 1016.1
20260505170604 56 360 1.0 3.0 0.00 0.00 0.00 87 1016.0
20260505170104 56 208 0.0 2.0 0.00 0.00 0.00 87 1015.8
20260505165404 56 208 1.0 2.0 0.00 0.00 0.00 86 1015.8
20260505164704 56 360 0.0 2.0 0.00 0.00 0.00 87 1015.8
20260505164004 56 360 1.0 3.0 0.00 0.00 0.00 88 1015.8
20260505163504 55 360 2.0 3.0 0.00 0.00 0.00 87 1015.8
20260505163004 55 360 1.0 2.0 0.00 0.00 0.00 87 1015.8
20260505162504 55 360 0.0 3.0 0.00 0.00 0.00 87 1015.7
20260505162004 55 360 1.0 3.0 0.00 0.00 0.00 88 1015.6
20260505161504 55 360 1.0 2.0 0.00 0.00 0.00 88 1015.6
20260505161004 55 360 0.0 2.0 0.00 0.00 0.00 88 1015.6
20260505160504 55 360 0.0 2.0 0.00 0.00 0.00 89 1015.5
20260505152804 54 360 1.0 3.0 0.00 0.00 0.00 91 1015.5
20260505152305 53 360 0.0 3.0 0.00 0.00 0.00 91 1015.5
20260505151804 53 360 3.0 3.0 0.00 0.00 0.00 91 1015.5
20260505150504 53 360 2.0 2.0 0.00 0.00 0.00 91 1015.4
20260505140504 52 167 3.0 3.0 0.00 0.00 0.00 93 1015.0
20260505125004 52 165 0.0 1.0 0.00 0.00 0.00 93 1014.5
20260505124305 52 165 0.0 0.0 0.00 0.00 0.00 93 1014.5
20260505123804 52 166 0.0 0.0 0.00 0.00 0.00 93 1014.4
20260505123104 52 165 0.0 0.0 0.00 0.00 0.00 93 1014.4
20260505122604 52 165 0.0 0.0 0.00 0.00 0.00 93 1014.5
20260505122104 52 165 0.0 0.0 0.00 0.00 0.00 93 1014.5
20260505121604 52 166 0.0 1.0 0.00 0.00 0.00 93 1014.4
20260505121105 52 166 0.0 1.0 0.00 0.00 0.00 93 1014.4
20260505120604 52 166 0.0 2.0 0.00 0.00 0.00 93 1014.4
20260505120104 52 165 0.0 4.0 0.00 0.00 0.00 93 1014.4
20260505115604 52 165 2.0 4.0 0.00 0.00 0.00 93 1014.3
20260505115104 53 169 1.0 1.0 0.00 0.00 0.00 93 1014.3
20260505114404 53 169 0.0 1.0 0.00 0.00 0.00 93 1014.3
20260505113904 53 169 0.0 1.0 0.00 0.00 0.00 93 1014.3
20260505113404 53 169 0.0 1.0 0.00 0.00 0.00 93 1014.3
20260505112704 53 360 0.0 1.0 0.00 0.00 0.00 92 1014.4
20260505112204 53 360 1.0 1.0 0.00 0.00 0.00 92 1014.3
20260505111604 53 169 0.0 0.0 0.00 0.00 0.00 92 1014.4
20260505110504 53 169 0.0 1.0 0.00 0.00 0.00 92 1014.2
20260505102004 53 360 1.0 2.0 0.00 0.00 0.00 92 1013.8
20260505100904 53 360 2.0 3.0 0.00 0.00 0.00 92 1013.8
20260505100404 53 360 0.0 3.0 0.00 0.00 0.00 92 1013.9
20260505095904 53 360 3.0 3.0 0.00 0.00 0.00 92 1013.9
20260505095404 53 360 2.0 3.0 0.00 0.00 0.00 92 1013.9
20260505094904 53 360 3.0 3.0 0.00 0.00 0.00 92 1013.9
20260505094404 53 360 1.0 3.0 0.00 0.00 0.00 92 1013.9
20260505093904 53 360 1.0 2.0 0.00 0.00 0.00 92 1013.8
20260505093404 53 360 2.0 2.0 0.00 0.00 0.00 92 1013.9
20260505092904 53 360 1.0 1.0 0.00 0.00 0.00 92 1013.7
20260505092404 53 360 1.0 1.0 0.00 0.00 0.00 92 1013.8
20260505091904 53 360 0.0 1.0 0.00 0.00 0.00 92 1013.8
20260505091404 53 360 0.0 1.0 0.00 0.00 0.00 92 1013.6
20260505090904 53 360 1.0 1.0 0.00 0.00 0.00 92 1013.7
20260505090204 53 360 1.0 1.0 0.00 0.00 0.00 92 1013.6
20260505085704 53 360 1.0 1.0 0.00 0.00 0.00 92 1013.6
20260505085204 53 360 1.0 1.0 0.00 0.00 0.00 92 1013.6
20260505084704 53 360 0.0 1.0 0.00 0.00 0.00 92 1013.5
20260505084204 53 360 0.0 1.0 0.00 0.00 0.00 92 1013.5
20260505083704 53 360 1.0 2.0 0.00 0.00 0.00 92 1013.5
20260505083204 53 360 1.0 2.0 0.00 0.00 0.00 91 1013.5
20260505082704 53 360 2.0 2.0 0.00 0.00 0.00 92 1013.4
20260505082105 53 360 2.0 2.0 0.00 0.00 0.00 91 1013.4
20260505081505 53 360 0.0 3.0 0.00 0.00 0.00 91 1013.4
20260505081004 53 360 3.0 3.0 0.00 0.00 0.00 91 1013.3
20260505080304 53 132 1.0 2.0 0.00 0.00 0.00 92 1013.4
20260505075804 53 107 0.0 2.0 0.00 0.00 0.00 92 1013.4
20260505075304 53 360 2.0 2.0 0.00 0.00 0.00 92 1013.4
20260505074805 54 360 1.0 3.0 0.00 0.00 0.00 92 1013.5
20260505074304 53 360 2.0 3.0 0.00 0.00 0.00 91 1013.4
20260505073804 53 173 1.0 3.0 0.00 0.00 0.00 92 1013.4
20260505073304 53 360 2.0 3.0 0.00 0.00 0.00 91 1013.4
20260505072604 54 360 1.0 3.0 0.00 0.00 0.00 92 1013.2
20260505072104 54 360 2.0 3.0 0.00 0.00 0.00 92 1013.2
20260505071604 54 360 2.0 3.0 0.00 0.00 0.00 92 1013.2
20260505071104 54 360 0.0 2.0 0.00 0.00 0.00 92 1013.1
20260505070604 54 360 2.0 2.0 0.00 0.00 0.00 92 1013.1
20260505070104 54 360 0.0 3.0 0.00 0.00 0.00 92 1012.9
20260505065604 54 360 2.0 3.0 0.00 0.00 0.00 92 1013.0
20260505065104 54 360 2.0 3.0 0.00 0.00 0.00 92 1013.1
20260505064604 54 360 0.0 3.0 0.00 0.00 0.00 92 1012.9